Cork, Ireland

6:08 AM GMT on February 27, 2017 (GMT +0000)
Cork

Weather History for 03955 - March, 2013

Change the Weather History Date:

Saturday, March 16, 2013

  Actual Average Record
Temperature  
Mean Temperature 38 °F -  
Max Temperature 46 °F 51 °F - ()
Min Temperature 30 °F 39 °F - ()
Degree Days  
Heating Degree Days 27    
Moisture  
Dew Point 33 °F    
Average Humidity 81    
Maximum Humidity 100    
Minimum Humidity 49    
Precipitation  
Precipitation 0.03 in 0.11 in - ()
Sea Level Pressure  
Sea Level Pressure 29.28 in    
Wind  
Wind Speed 6 mph ()    
Max Wind Speed 10 mph    
Max Gust Speed -    
Visibility 6.2 miles    
Events Rain    
T = Trace of Precipitation, MM = Missing Value Source: Averaged Metar Reports

Daily Weather History Graph

Daily Weather History Graph

Search for Another Location

Airport or City:

Trip Planner

Search our weather history database for the weather conditions in past years. The results will help you decide how hot, cold, wet, or windy it might be!

Date:

Astronomy

Mar. 16, 2013 Rise Set
Actual Time 6:45 AM GMT 6:40 PM GMT
Civil Twilight 6:12 AM GMT 7:13 PM GMT
Nautical Twilight 5:32 AM GMT 7:53 PM GMT
Astronomical Twilight 4:52 AM GMT 8:34 PM GMT
Moon 8:30 AM GMT (3/16) No Moon Set
Length of Visible Light 13h 01m
Length of Day
11h 54m
Waxing Crescent, 21% of the Moon is Illuminated
Mar 16
Waxing Crescent
Mar 19
First Quarter
Mar 27
Full
Apr 3
Last Quarter
Apr 10
New

Hourly Weather History & Observations

Time (GMT) Temp. Windchill Dew Point Humidity Pressure Visibility Wind Dir Wind Speed Gust Speed Precip Events Conditions
12:00 AM 34 °F - 33 °F 95% 29.36 in 25 mi East 2.2 mph - -   Scattered Clouds
12:00 AM 33.8 °F - 33.8 °F 100% 29.33 in 6.2 mi East 2.3 mph - N/A   Partly Cloudy
12:30 AM 33.8 °F - 32.0 °F 93% 29.33 in 6.2 mi SSW 2.3 mph - N/A   Partly Cloudy
1:00 AM 33.8 °F 30.8 °F 32.0 °F 93% 29.30 in 6.2 mi SSW 3.5 mph - N/A   Partly Cloudy
1:30 AM 32.0 °F - 32.0 °F 100% 29.30 in 6.2 mi SE 2.3 mph - N/A   Partly Cloudy
2:00 AM 33.8 °F - 32.0 °F 93% 29.30 in 6.2 mi Calm Calm - N/A   Partly Cloudy
2:30 AM 32.0 °F 28.7 °F 30.2 °F 93% 29.27 in 6.2 mi SSE 3.5 mph - N/A   Partly Cloudy
3:00 AM 32.0 °F 28.7 °F 32.0 °F 100% 29.27 in 6.2 mi ESE 3.5 mph - N/A   Partly Cloudy
3:30 AM 33.8 °F 27.7 °F 33.8 °F 100% 29.24 in 6.2 mi East 6.9 mph - N/A   Scattered Clouds
4:00 AM 33.8 °F 27.7 °F 33.8 °F 100% 29.24 in 6.2 mi East 6.9 mph - N/A   Mostly Cloudy
4:30 AM 33.8 °F 27.0 °F 33.8 °F 100% 29.24 in 6.2 mi East 8.1 mph - N/A   Mostly Cloudy
5:00 AM 33.8 °F 27.7 °F 33.8 °F 100% 29.21 in 6.2 mi East 6.9 mph - N/A   Mostly Cloudy
5:30 AM 33.8 °F 28.6 °F 33.8 °F 100% 29.21 in 6.2 mi ENE 5.8 mph - N/A   Mostly Cloudy
6:00 AM 35 °F - 34 °F 96% 29.25 in 22 mi ENE 8.9 mph - - Rain Light Rain Showers
6:00 AM 35.6 °F 29.2 °F 33.8 °F 93% 29.21 in 6.2 mi ENE 8.1 mph - N/A   Mostly Cloudy
6:30 AM 35.6 °F 29.9 °F 35.6 °F 100% 29.21 in 6.2 mi East 6.9 mph - N/A Rain Light Rain Showers
7:00 AM 33.8 °F 27.0 °F 33.8 °F 100% 29.21 in 6.2 mi ENE 8.1 mph - N/A Rain Light Rain Showers
7:30 AM 33.8 °F 25.8 °F 33.8 °F 100% 29.21 in 6.2 mi NE 10.4 mph - N/A Rain Light Rain Showers
8:00 AM 35.6 °F 29.9 °F 35.6 °F 100% 29.21 in 6.2 mi East 6.9 mph - N/A   Mostly Cloudy
8:30 AM 35.6 °F 30.7 °F 35.6 °F 100% 29.24 in 6.2 mi NE 5.8 mph - N/A   Mostly Cloudy
9:00 AM 35.6 °F 30.7 °F 35.6 °F 100% 29.24 in 6.2 mi NNE 5.8 mph - N/A   Mostly Cloudy
9:30 AM 37.4 °F 32.8 °F 37.4 °F 100% 29.24 in 6.2 mi NNE 5.8 mph - N/A   Scattered Clouds
10:00 AM 39.2 °F 34.2 °F 37.4 °F 93% 29.24 in 6.2 mi North 6.9 mph - N/A   Scattered Clouds
10:30 AM 41.0 °F 37.1 °F 37.4 °F 87% 29.24 in 6.2 mi North 5.8 mph - N/A   Scattered Clouds
11:00 AM 41.0 °F 36.4 °F 37.4 °F 87% 29.24 in 6.2 mi North 6.9 mph - N/A   Scattered Clouds
11:30 AM 42.8 °F 38.0 °F 35.6 °F 76% 29.24 in 6.2 mi NNE 8.1 mph - N/A   Scattered Clouds
12:00 PM 44 °F - 35 °F 60% 29.28 in 25 mi NE 8.9 mph - -   Partly Cloudy
12:00 PM 44.6 °F 39.7 °F 35.6 °F 71% 29.24 in 6.2 mi NE 9.2 mph - N/A   Scattered Clouds
12:30 PM 44.6 °F 39.2 °F 32.0 °F 61% 29.24 in 6.2 mi NNE 10.4 mph - N/A   Mostly Cloudy
1:00 PM 44.6 °F 39.7 °F 33.8 °F 66% 29.27 in 6.2 mi North 9.2 mph - N/A   Mostly Cloudy
1:30 PM 44.6 °F 40.2 °F 32.0 °F 61% 29.27 in 6.2 mi North 8.1 mph - N/A   Scattered Clouds
2:00 PM 46.4 °F 41.9 °F 30.2 °F 53% 29.27 in 6.2 mi NNE 9.2 mph - N/A   Mostly Cloudy
2:30 PM 44.6 °F 39.2 °F 30.2 °F 57% 29.27 in 6.2 mi North 10.4 mph - N/A   Mostly Cloudy
3:00 PM 44.6 °F 39.7 °F 28.4 °F 53% 29.27 in 6.2 mi NNE 9.2 mph - N/A   Scattered Clouds
3:30 PM 44.6 °F 40.2 °F 26.6 °F 49% 29.27 in 6.2 mi NE 8.1 mph - N/A   Scattered Clouds
4:00 PM 44.6 °F 41.4 °F 28.4 °F 53% 29.27 in 6.2 mi North 5.8 mph - N/A   Scattered Clouds
4:30 PM 44.6 °F 40.2 °F 30.2 °F 57% 29.27 in 6.2 mi North 8.1 mph - N/A   Scattered Clouds
5:00 PM 44.6 °F 39.7 °F 30.2 °F 57% 29.30 in 6.2 mi NNE 9.2 mph - N/A   Mostly Cloudy
5:30 PM 42.8 °F 37.0 °F 32.0 °F 66% 29.30 in 6.2 mi North 10.4 mph - N/A   Mostly Cloudy
6:00 PM 42 °F - 32 °F 58% 29.33 in 31 mi North 8.9 mph - -   Partly Cloudy
6:00 PM 42.8 °F 37.5 °F 32.0 °F 66% 29.30 in 6.2 mi North 9.2 mph - N/A   Mostly Cloudy
6:30 PM 41.0 °F 36.4 °F 32.0 °F 70% 29.33 in 6.2 mi North 6.9 mph - N/A   Scattered Clouds
7:00 PM 41.0 °F 36.4 °F 30.2 °F 65% 29.33 in 6.2 mi NNW 6.9 mph - N/A   Scattered Clouds
7:30 PM 39.2 °F 33.0 °F 30.2 °F 70% 29.33 in 6.2 mi NNW 9.2 mph - N/A   Partly Cloudy
8:00 PM 39.2 °F 34.2 °F 30.2 °F 70% 29.33 in 6.2 mi NNW 6.9 mph - N/A   Scattered Clouds
8:30 PM 37.4 °F 32.1 °F 30.2 °F 75% 29.36 in 6.2 mi NW 6.9 mph - N/A   Scattered Clouds
9:00 PM 37.4 °F 30.8 °F 30.2 °F 75% 29.36 in 6.2 mi NW 9.2 mph - N/A   Scattered Clouds
9:30 PM 37.4 °F 32.1 °F 30.2 °F 75% 29.36 in 6.2 mi NNW 6.9 mph - N/A   Mostly Cloudy
10:00 PM 37.4 °F 30.3 °F 32.0 °F 81% 29.36 in 6.2 mi NNW 10.4 mph - N/A   Scattered Clouds
10:30 PM 35.6 °F 28.6 °F 32.0 °F 87% 29.36 in 6.2 mi NW 9.2 mph - N/A   Scattered Clouds
11:00 PM 35.6 °F 28.0 °F 32.0 °F 87% 29.36 in 6.2 mi NW 10.4 mph - N/A   Scattered Clouds
11:30 PM 35.6 °F 28.0 °F 32.0 °F 87% 29.36 in 6.2 mi NW 10.4 mph - N/A   Partly Cloudy